Palm Springs, CA

7:29 PM PDT on April 27, 2017 (GMT -0700)
Palm Springs International

Weather History for KPSP - November, 2012

Change the Weather History Date:

Sunday, November 25, 2012

  Actual Average Record
Temperature  
Mean Temperature 69 °F 60 °F  
Max Temperature 83 °F 73 °F 93 °F (1933)
Min Temperature 55 °F 48 °F 32 °F (1952)
Degree Days  
Heating Degree Days 0 5  
Month to date heating degree days 34 61  
Since 1 July heating degree days 34 65  
Cooling Degree Days 4 1  
Month to date cooling degree days 111 73  
Year to date cooling degree days 4700 4135  
Growing Degree Days 20 (Base 50)    
Moisture  
Dew Point 34 °F    
Average Humidity 29    
Maximum Humidity 43    
Minimum Humidity 15    
Precipitation  
Precipitation 0.00 in 0.03 in 0.80 in (1985)
Month to date precipitation T 0.41  
Year to date precipitation 1.82 4.74  
Since 1 July precipitation 1.03  
Snow  
Snow 0.00 in - - ()
Month to date snowfall 0.0  
Year to date snowfall 0.0  
Snow Depth 0.00 in    
Sea Level Pressure  
Sea Level Pressure 29.87 in    
Wind  
Wind Speed 6 mph (North)    
Max Wind Speed 10 mph    
Max Gust Speed 13 mph    
Visibility 10 miles    
Events      
T = Trace of Precipitation, MM = Missing Value Source: NWS Daily Summary

Daily Weather History Graph

Daily Weather History Graph

Search for Another Location

Airport or City:

Trip Planner

Search our weather history database for the weather conditions in past years. The results will help you decide how hot, cold, wet, or windy it might be!

Date:

Astronomy

Nov. 25, 2012 Rise Set
Actual Time 6:28 AM PST 4:38 PM PST
Civil Twilight 6:01 AM PST 5:05 PM PST
Nautical Twilight 5:30 AM PST 5:35 PM PST
Astronomical Twilight 5:00 AM PST 6:05 PM PST
Moon 2:53 PM PST (11/25) 3:51 AM PST (11/25)
Length of Visible Light 11h 04m
Length of Day
10h 10m
Waxing Gibbous, 93% of the Moon is Illuminated
Nov 25
Waxing Gibbous
Nov 28
Full
Dec 6
Last Quarter
Dec 13
New
Dec 19
First Quarter

Hourly Weather History & Observations

Time (PST) Temp. Dew Point Humidity Pressure Visibility Wind Dir Wind Speed Gust Speed Precip Events Conditions
12:53 AM 62.1 °F 28.0 °F 28% 29.90 in 10.0 mi NW 8.1 mph - N/A   Clear
1:53 AM 61.0 °F 28.9 °F 30% 29.88 in 10.0 mi NNW 8.1 mph - N/A   Clear
2:53 AM 64.0 °F 28.9 °F 27% 29.88 in 10.0 mi NW 5.8 mph - N/A   Clear
3:53 AM 57.9 °F 30.0 °F 35% 29.87 in 10.0 mi NNW 5.8 mph - N/A   Clear
4:53 AM 57.0 °F 36.0 °F 45% 29.87 in 10.0 mi NNW 3.5 mph - N/A   Clear
5:53 AM 60.1 °F 32.0 °F 35% 29.88 in 10.0 mi NNW 8.1 mph - N/A   Clear
6:53 AM 60.1 °F 32.0 °F 35% 29.89 in 10.0 mi NW 6.9 mph - N/A   Clear
7:53 AM 62.1 °F 39.9 °F 44% 29.91 in 10.0 mi Calm Calm - N/A   Clear
8:53 AM 70.0 °F 37.0 °F 30% 29.91 in 10.0 mi Calm Calm - N/A   Clear
9:53 AM 75.0 °F 32.0 °F 21% 29.91 in 10.0 mi ESE 3.5 mph - N/A   Clear
10:53 AM 78.1 °F 33.1 °F 19% 29.88 in 10.0 mi ESE 5.8 mph - N/A   Clear
11:53 AM 79.0 °F 32.0 °F 18% 29.85 in 10.0 mi SE 4.6 mph - N/A   Clear
12:53 PM 82.0 °F 32.0 °F 16% 29.83 in 10.0 mi East 6.9 mph - N/A   Clear
1:53 PM 82.0 °F 30.9 °F 16% 29.81 in 10.0 mi SE 8.1 mph - N/A   Clear
2:53 PM 81.0 °F 32.0 °F 17% 29.80 in 10.0 mi ESE 8.1 mph - N/A   Clear
3:53 PM 79.0 °F 35.1 °F 20% 29.81 in 10.0 mi ESE 5.8 mph - N/A   Clear
4:53 PM 73.9 °F 36.0 °F 25% 29.81 in 10.0 mi SE 4.6 mph - N/A   Clear
5:53 PM 73.0 °F 36.0 °F 26% 29.83 in 10.0 mi Calm Calm - N/A   Clear
6:53 PM 68.0 °F 41.0 °F 37% 29.85 in 10.0 mi WSW 3.5 mph - N/A   Clear
7:53 PM 66.0 °F 39.0 °F 37% 29.86 in 10.0 mi North 6.9 mph - N/A   Clear
8:53 PM 64.0 °F 39.9 °F 41% 29.88 in 10.0 mi WNW 3.5 mph - N/A   Clear
9:53 PM 66.9 °F 32.0 °F 27% 29.88 in 10.0 mi NW 4.6 mph - N/A   Clear
10:53 PM 64.0 °F 34.0 °F 33% 29.88 in 10.0 mi NNW 3.5 mph - N/A   Clear
11:53 PM 62.1 °F 32.0 °F 32% 29.89 in 10.0 mi NNW 4.6 mph - N/A   Clear